Location: Piedmont
(45.8748°N, 74.1254°W)
Time: 23:03:30
(UTC+00:00)

N. Korean satellite - Pass Details

Date: 04 December 2021
Orbit: 447 x 491 km, 97.3° (Epoch: 21 January)

Event Time Altitude Azimuth Distance (km) Brightness Sun altitude
Rises 11:06:07 0° 359° (N) 2,469 9.9 -12.6°
Reaches altitude 10° 11:08:28 10° 343° (NNW) 1,587 8.8 -12.2°
Maximum altitude 11:11:07 21° 292° (WNW) 1,051 7.6 -11.8°
Drops below altitude 10° 11:13:44 10° 241° (WSW) 1,573 8.8 -11.4°
Sets 11:16:03 0° 225° (SW) 2,439 9.9 -11.0°
